Location: Newark
(51.3318°N, 0.0053°E)
Time: 22:42:06
(UTC+00:00)

ITUPSAT 1 - Pass Details

Date: 05 July 2022
Orbit: 701 x 711 km, 98.6° (Epoch: 08 August)

Event Time Altitude Azimuth Distance (km) Brightness Sun altitude
Rises 22:08:15 0° 5° (N) 3,115 ? -11.7°
Reaches altitude 10° 22:11:02 10° 349° (NNW) 2,193 ? -11.9°
Maximum altitude 22:14:26 20° 304° (WNW) 1,630 ? -12.1°
Drops below altitude 10° 22:17:50 10° 258° (WSW) 2,187 ? -12.3°
Sets 22:20:36 0° 242° (WSW) 3,103 ? -12.5°
